Carlsbad, NM

5:53 PM MDT on May 29, 2017 (GMT -0600)
Cavern City

Weather History for KCNM - November, 2013

Change the Weather History Date:

Sunday, November 3, 2013

  Actual Average Record
Temperature  
Mean Temperature 58 °F -  
Max Temperature 79 °F 65 °F 86 °F (1988)
Min Temperature 39 °F 37 °F 21 °F (1991)
Degree Days  
Heating Degree Days 7    
Growing Degree Days 8 (Base 50)    
Moisture  
Dew Point 33 °F    
Average Humidity 42    
Maximum Humidity 69    
Minimum Humidity 21    
Precipitation  
Precipitation 0.00 in - - ()
Sea Level Pressure  
Sea Level Pressure 29.82 in    
Wind  
Wind Speed 9 mph (SSE)    
Max Wind Speed 14 mph    
Max Gust Speed -    
Visibility 10 miles    
Events      
Averages and records for this station are not official NWS values.
T = Trace of Precipitation, MM = Missing Value Source: NWS Daily Summary

Daily Weather History Graph

Daily Weather History Graph

Search for Another Location

Airport or City:

Trip Planner

Search our weather history database for the weather conditions in past years. The results will help you decide how hot, cold, wet, or windy it might be!

Date:

Astronomy

Nov. 03, 2013 Rise Set
Actual Time 6:16 AM MST 5:04 PM MST
Civil Twilight 5:50 AM MST 5:30 PM MST
Nautical Twilight 5:21 AM MST 5:59 PM MST
Astronomical Twilight 4:52 AM MST 6:27 PM MST
Moon 6:21 AM MST (11/3) 5:23 PM MST (11/3)
Length of Visible Light 11h 39m
Length of Day
10h 48m
New Moon, 0% of the Moon is Illuminated
Nov 3
New Moon
Nov 9
First Quarter
Nov 17
Full
Nov 25
Last Quarter
Dec 2
New

Hourly Weather History & Observations

Time (MST) Temp. Windchill Dew Point Humidity Pressure Visibility Wind Dir Wind Speed Gust Speed Precip Events Conditions
12:53 AM 48.0 °F - 26.1 °F 42% 29.99 in 10.0 mi SSE 10.4 mph - N/A   Clear
1:53 AM 44.1 °F 40.1 °F 26.1 °F 49% 29.98 in 10.0 mi SSE 6.9 mph - N/A   Clear
1:53 AM 39.0 °F 31.8 °F 25.0 °F 57% 29.95 in 10.0 mi South 11.5 mph - N/A   Clear
2:53 AM 39.0 °F 34.8 °F 25.0 °F 57% 29.94 in 10.0 mi SSW 5.8 mph - N/A   Clear
3:53 AM 43.0 °F 39.5 °F 26.1 °F 51% 29.90 in 10.0 mi ESE 5.8 mph - N/A   Clear
4:53 AM 46.9 °F - 28.0 °F 48% 29.90 in 10.0 mi SSE 9.2 mph - N/A   Clear
5:53 AM 46.0 °F 43.1 °F 28.0 °F 50% 29.89 in 10.0 mi SSE 5.8 mph - N/A   Clear
6:53 AM 44.1 °F 39.0 °F 28.9 °F 55% 29.92 in 10.0 mi SSE 9.2 mph - N/A   Clear
7:53 AM 48.9 °F - 30.0 °F 48% 29.90 in 10.0 mi SE 10.4 mph - N/A   Clear
8:53 AM 55.9 °F - 32.0 °F 40% 29.89 in 10.0 mi SSE 9.2 mph - N/A   Clear
9:53 AM 59.0 °F - 32.0 °F 36% 29.89 in 10.0 mi ESE 6.9 mph - N/A   Clear
10:53 AM 68.0 °F - 33.1 °F 27% 29.83 in 10.0 mi SE 6.9 mph - N/A   Partly Cloudy
11:53 AM 75.0 °F - 36.0 °F 24% 29.78 in 10.0 mi NNE 10.4 mph - N/A   Clear
12:14 PM 73.0 °F - 36.0 °F 26% 29.89 in 10.0 mi North 12.7 mph - N/A   Clear
12:53 PM 73.0 °F - 36.0 °F 26% 29.75 in 10.0 mi North 10.4 mph - N/A   Scattered Clouds
1:53 PM 77.0 °F - 34.0 °F 21% 29.71 in 10.0 mi North - - N/A   Partly Cloudy
2:53 PM 75.9 °F - 36.0 °F 23% 29.70 in 10.0 mi SW 5.8 mph - N/A   Clear
3:53 PM 75.0 °F - 32.0 °F 21% 29.69 in 10.0 mi WSW 13.8 mph - N/A   Clear
4:53 PM 72.0 °F - 39.0 °F 30% 29.68 in 10.0 mi South 9.2 mph - N/A   Clear
5:53 PM 66.9 °F - 39.0 °F 36% 29.72 in 10.0 mi South 10.4 mph - N/A   Clear
6:53 PM 64.0 °F - 39.9 °F 41% 29.73 in 10.0 mi SE 9.2 mph - N/A   Clear
7:53 PM 57.9 °F - 41.0 °F 53% 29.75 in 10.0 mi SSE 6.9 mph - N/A   Clear
8:53 PM 57.9 °F - 41.0 °F 53% 29.74 in 10.0 mi SE 9.2 mph - N/A   Clear
9:53 PM 57.9 °F - 42.1 °F 56% 29.74 in 10.0 mi SSE 12.7 mph - N/A   Clear
10:53 PM 54.0 °F - 44.1 °F 69% 29.75 in 10.0 mi SE 9.2 mph - N/A   Clear